Weather History for Charles City, IA

Change the Weather History Date:

Saturday, October 29, 2011

  Actual Average Record
Temperature  
Mean Temperature 38 °F -  
Max Temperature 53 °F 55 °F 80 °F (1950)
Min Temperature 24 °F 33 °F 17 °F (1952)
Degree Days  
Heating Degree Days 26    
Moisture  
Dew Point 15 °F    
Average Humidity 42    
Maximum Humidity 74    
Minimum Humidity 10    
Precipitation  
Precipitation 0.00 in - - ()
Sea Level Pressure  
Sea Level Pressure 30.03 in    
Wind  
Wind Speed 5 mph (SSW)    
Max Wind Speed 20 mph    
Max Gust Speed 20 mph    
Visibility 10 miles    
Events      
Averages and records for this station are not official NWS values.
T = Trace of Precipitation, MM = Missing Value Source: NWS Daily Summary

Daily Weather History Graph

Daily Weather History Graph

Search for Another Location

Airport:

Trip Planner

Search our weather history database for the weather conditions in past years. The results will help you decide how hot, cold, wet, or windy it might be!

Date:

Astronomy

Oct. 29, 2011 Rise Set
Actual Time 7:40 AM CDT 6:06 PM CDT
Civil Twilight 7:11 AM CDT 6:36 PM CDT
Nautical Twilight 6:38 AM CDT 7:09 PM CDT
Astronomical Twilight 6:05 AM CDT 7:42 PM CDT
Moon 11:08 AM CDT (10/29) 8:25 PM CDT (10/29)
Length of Visible Light 11h 24m
Length of Day
10h 25m
Waxing Crescent, 12% of the Moon is Illuminated
Oct 29
Waxing Crescent
Nov 2
First Quarter
Nov 10
Full
Nov 18
Last Quarter
Nov 25
New

Hourly Weather History & Observations

Time (CDT) Temp. Windchill Dew Point Humidity Pressure Visibility Wind Dir Wind Speed Gust Speed Precip Events Conditions
12:15 AM 30.2 °F 25.4 °F 19.4 °F 64% 30.05 in 10.0 mi West 4.6 mph - N/A   Clear
12:35 AM 30.2 °F 25.4 °F 19.4 °F 64% 30.05 in 10.0 mi West 4.6 mph - N/A   Clear
12:55 AM 30.2 °F 24.3 °F 19.4 °F 64% 30.05 in 10.0 mi West 5.8 mph - N/A   Clear
1:35 AM 32.0 °F 25.6 °F 19.4 °F 60% 30.05 in 10.0 mi West 6.9 mph - N/A   Clear
1:55 AM 30.2 °F 23.4 °F 19.4 °F 64% 30.05 in 10.0 mi WNW 6.9 mph - N/A   Clear
2:15 AM 30.2 °F 22.6 °F 19.4 °F 64% 30.05 in 10.0 mi West 8.1 mph - N/A   Clear
2:35 AM 30.2 °F 24.3 °F 19.4 °F 64% 30.05 in 10.0 mi WNW 5.8 mph - N/A   Clear
2:55 AM 30.2 °F 22.6 °F 19.4 °F 64% 30.05 in 10.0 mi West 8.1 mph - N/A   Clear
3:15 AM 30.2 °F 23.4 °F 19.4 °F 64% 30.05 in 10.0 mi West 6.9 mph - N/A   Clear
3:35 AM 30.2 °F 23.4 °F 19.4 °F 64% 30.04 in 10.0 mi West 6.9 mph - N/A   Clear
3:55 AM 28.4 °F 21.2 °F 19.4 °F 69% 30.04 in 10.0 mi WNW 6.9 mph - N/A   Clear
4:15 AM 28.4 °F 21.2 °F 19.4 °F 69% 30.04 in 10.0 mi WNW 6.9 mph - N/A   Clear
4:35 AM 28.4 °F 23.3 °F 19.4 °F 69% 30.04 in 10.0 mi WNW 4.6 mph - N/A   Clear
5:15 AM 28.4 °F - 19.4 °F 69% 30.05 in 10.0 mi Calm Calm - N/A   Clear
5:35 AM 28.4 °F - 19.4 °F 69% 30.05 in 10.0 mi Calm Calm - N/A   Clear
5:55 AM 26.6 °F 22.6 °F 19.4 °F 74% 30.05 in 10.0 mi West 3.5 mph - N/A   Clear
6:15 AM 26.6 °F 22.6 °F 19.4 °F 74% 30.06 in 10.0 mi West 3.5 mph - N/A   Clear
6:35 AM 24.8 °F 20.5 °F 17.6 °F 74% 30.06 in 10.0 mi WSW 3.5 mph - N/A   Clear
6:55 AM 26.6 °F 21.2 °F 17.6 °F 69% 30.06 in 10.0 mi West 4.6 mph - N/A   Clear
7:15 AM 26.6 °F 22.6 °F 17.6 °F 69% 30.07 in 10.0 mi West 3.5 mph - N/A   Clear
7:35 AM 26.6 °F 22.6 °F 19.4 °F 74% 30.07 in 10.0 mi WNW 3.5 mph - N/A   Clear
7:55 AM 26.6 °F 22.6 °F 17.6 °F 69% 30.08 in 10.0 mi West 3.5 mph - N/A   Clear
8:15 AM 26.6 °F 22.6 °F 19.4 °F 74% 30.09 in 10.0 mi West 3.5 mph - N/A   Clear
8:35 AM 28.4 °F 24.6 °F 19.4 °F 69% 30.09 in 10.0 mi West 3.5 mph - N/A   Clear
8:55 AM 30.2 °F 26.7 °F 21.2 °F 69% 30.09 in 10.0 mi West 3.5 mph - N/A   Clear
9:15 AM 32.0 °F 27.5 °F 21.2 °F 64% 30.09 in 10.0 mi West 4.6 mph - N/A   Clear
9:35 AM 33.8 °F - 21.2 °F 60% 30.08 in 10.0 mi Calm Calm - N/A   Clear
10:15 AM 39.2 °F - 24.8 °F 56% 30.09 in 10.0 mi Calm Calm - N/A   Clear
10:35 AM 41.0 °F - 24.8 °F 53% 30.09 in 10.0 mi Calm Calm - N/A   Clear
10:55 AM 42.8 °F - 24.8 °F 49% 30.08 in 10.0 mi Calm Calm - N/A   Clear
11:15 AM 46.4 °F - 23.0 °F 40% 30.09 in 10.0 mi Calm Calm - N/A   Clear
11:35 AM 46.4 °F 45.2 °F 23.0 °F 40% 30.09 in 10.0 mi WSW 3.5 mph - N/A   Clear
11:55 AM 48.2 °F - 21.2 °F 34% 30.09 in 10.0 mi Calm Calm - N/A   Clear
12:15 PM 50.0 °F - 19.4 °F 30% 30.09 in 10.0 mi WSW 3.5 mph - N/A   Clear
12:55 PM 51.8 °F - 12.2 °F 21% 30.07 in 10.0 mi SW 4.6 mph - N/A   Clear
1:15 PM 51.8 °F - 8.6 °F 18% 30.06 in 10.0 mi WSW 3.5 mph - N/A   Clear
1:35 PM 53.6 °F - 3.2 °F 13% 30.05 in 10.0 mi Calm Calm - N/A   Clear
1:55 PM 53.6 °F - -2.2 °F 10% 30.04 in 10.0 mi Calm Calm - N/A   Clear
2:15 PM 53.6 °F - 1.4 °F 12% 30.03 in 10.0 mi South 5.8 mph - N/A   Clear
2:35 PM 53.6 °F - -0.4 °F 11% 30.02 in 10.0 mi SSW 8.1 mph - N/A   Clear
2:55 PM 53.6 °F - 1.4 °F 12% 30.01 in 10.0 mi SSW 3.5 mph - N/A   Clear
3:15 PM 53.6 °F - -0.4 °F 11% 30.01 in 10.0 mi SSW 8.1 mph - N/A   Clear
3:35 PM 53.6 °F - -0.4 °F 11% 30.01 in 10.0 mi South 4.6 mph - N/A   Clear
3:55 PM 53.6 °F - -0.4 °F 11% 30.00 in 10.0 mi SE 4.6 mph - N/A   Clear
4:15 PM 53.6 °F - 1.4 °F 12% 30.00 in 10.0 mi SSE 9.2 mph - N/A   Clear
4:35 PM 53.6 °F - 1.4 °F 12% 29.99 in 10.0 mi South 8.1 mph - N/A   Clear
4:55 PM 53.6 °F - 3.2 °F 13% 29.99 in 10.0 mi SE 6.9 mph - N/A   Clear
5:15 PM 51.8 °F - 6.8 °F 16% 29.98 in 10.0 mi SE 5.8 mph - N/A   Clear
5:35 PM 50.0 °F - 10.4 °F 20% 29.98 in 10.0 mi ESE 4.6 mph - N/A   Clear
5:55 PM 48.2 °F - 12.2 °F 24% 29.99 in 10.0 mi ESE 5.8 mph - N/A   Clear
6:15 PM 48.2 °F - 12.2 °F 24% 29.98 in 10.0 mi SE 5.8 mph - N/A   Clear
6:35 PM 48.2 °F - 15.8 °F 27% 29.98 in 10.0 mi ESE 8.1 mph - N/A   Clear
7:15 PM 48.2 °F - 15.8 °F 27% 29.98 in 10.0 mi SE 6.9 mph - N/A   Clear
7:35 PM 46.4 °F 41.9 °F 15.8 °F 29% 29.98 in 10.0 mi SE 9.2 mph - N/A   Clear
7:55 PM 46.4 °F 42.4 °F 15.8 °F 29% 29.97 in 10.0 mi ESE 8.1 mph - N/A   Clear
8:15 PM 48.2 °F - 14.0 °F 25% 29.97 in 10.0 mi ESE 11.5 mph - N/A   Clear
8:35 PM 48.2 °F - 12.2 °F 24% 29.97 in 10.0 mi ESE 9.2 mph - N/A   Clear
8:55 PM 48.2 °F - 14.0 °F 25% 29.97 in 10.0 mi SE 10.4 mph - N/A   Clear
9:15 PM 46.4 °F 41.5 °F 15.8 °F 29% 29.97 in 10.0 mi ESE 10.4 mph - N/A   Clear
9:35 PM 46.4 °F 41.5 °F 15.8 °F 29% 29.97 in 10.0 mi ESE 10.4 mph - N/A   Clear
9:55 PM 46.4 °F 41.9 °F 17.6 °F 32% 29.97 in 10.0 mi ESE 9.2 mph - N/A   Scattered Clouds
10:15 PM 46.4 °F 41.9 °F 17.6 °F 32% 29.97 in 10.0 mi SE 9.2 mph - N/A   Scattered Clouds
10:35 PM 46.4 °F 41.1 °F 17.6 °F 32% 29.96 in 10.0 mi ESE 11.5 mph 17.3 mph N/A   Clear
10:55 PM 46.4 °F 41.1 °F 17.6 °F 32% 29.95 in 10.0 mi ESE 11.5 mph - N/A   Clear
11:15 PM 46.4 °F 39.8 °F 17.6 °F 32% 29.94 in 10.0 mi SE 16.1 mph 19.6 mph N/A   Mostly Cloudy
11:35 PM 46.4 °F 40.4 °F 17.6 °F 32% 29.94 in 10.0 mi SE 13.8 mph 19.6 mph N/A   Overcast
11:55 PM 46.4 °F 39.0 °F 17.6 °F 32% 29.92 in 10.0 mi SE 19.6 mph - N/A   Mostly Cloudy